Regional Weather Roundup
Issued by NWS Northern Indiana

Home | Current Version | Previous Version | Text Only | Print | Product List | Glossary On
Versions: 1 2 3 4 5 6 7 8 9 10 11 12 13 14 15 16 17 18 19 20 21 22 23 24 25 26 27 28 29 30 31 32 33 34 35 36 37 38 39 40 41 42 43 44 45 46 47 48 49 50
000
ASUS43 KIWX 280200
RWRIWX

KIWX WEATHER ROUNDUP
NATIONAL WEATHER SERVICE NORTHERN INDIANA
1000 PM EDT MON JUL 27 2015

NOTE: "FAIR" INDICATES FEW OR NO CLOUDS BELOW 12,000 FEET WITH NO
SIGNIFICANT WEATHER AND/OR OBSTRUCTIONS TO VISIBILITY.

* THESE STATIONS ARE NOT UNDER NWS QUALITY CONTROL. THEY ALSO MAY NOT
  REPORT WEATHER SUCH AS PRECIPITATION OR FOG.

INZ001>027-280300-
NORTHERN INDIANA

CITY           SKY/WX    TMP DP  RH WIND       PRES   REMARKS
GARY*          MOCLDY    75  70  83 E8        30.01R
SOUTH BEND     MOCLDY    79  62  56 E3        30.02R
GOSHEN         PTCLDY    72  65  78 NE3       30.01R
ANGOLA*        CLEAR     72  63  73 CALM      30.03R
FORT WAYNE     PTCLDY    74  63  68 E8        30.01R
PERU/GRISSOM   MOCLDY    76  65  68 E6        29.99R

$$
INZ028>050-280300-
CENTRAL INDIANA

CITY           SKY/WX    TMP DP  RH WIND       PRES   REMARKS
LAFAYETTE      MOCLDY    76  68  76 NE5       29.98R
KOKOMO*        CLOUDY    73  66  78 NE5       29.99R
MUNCIE*        CLOUDY    76  71  85 E5        30.00R
INDIANAPOLIS   MOCLDY    80  71  74 E8        29.97R

$$
MIZ043>046-050>051-056>058-064>065-071>073-077>080-280300-
SOUTHWEST LOWER MICHIGAN

CITY           SKY/WX    TMP DP  RH WIND       PRES   REMARKS
BATTLE CREEK   PTCLDY    78  63  59 CALM      30.03R
BENTON HARBOR  PTCLDY    72  66  81 CALM      30.01R
COLDWATER*     CLEAR     72  60  67 CALM      30.03R
HILLSDALE*     PTCLDY    71  67  87 CALM      30.04R
HOLLAND        CLEAR     74  67  78 CALM      30.02R
GRAND RAPIDS   PTCLDY    76  67  73 NE3       30.02R
KALAMAZOO      PTCLDY    75  64  68 CALM      30.02R
STURGIS*       PTCLDY    70  64  83 CALM      30.02R
THREE RIVERS*  FAIR      72  65  77 CALM      30.02R

$$
OHZ001>008-015>018-024>025-280300-
NORTHWEST OHIO

CITY           SKY/WX    TMP DP  RH WIND       PRES   REMARKS
DEFIANCE       CLEAR     75  63  66 E3        30.01R
FINDLAY        CLEAR     78  61  55 NE9       30.01R
TOLEDO EXPRESS CLEAR     70  62  76 E3        30.01S
TOLEDO METCALF CLEAR     77  61  57 CALM      30.02R
LIMA           CLEAR     73  64  73 NE5       30.01R

$$
AND FOR LAKE MICHIGAN COASTAL AND OPEN LAKE BUOY OBSERVATIONS

STATION/POSITION TEMP    WIND        PRES    VSBY  WAVE
                 AIR SEA DIR/SP/G                  HT/PER
                 (F)     (DEG/KT/KT) (MB)    (MI)  (FT/S)
CALUMET HARBOR    76      10/  5/  7   N/A
MICHIGAN CITY     74      40/ 12/ 12   N/A
BURNS HARBOR      74      60/  8/  8 1015.9S
SAINT JOSEPH      76     360/  4/  8 1016.3R
4 MI NW BRIDGMAN  75 74   70/ 10/ 12   N/A           1/ 3
MICHIGAN CITY     76 75   60/ 12/ 16   N/A           2/ 3

$$
&&



USA.gov is the U.S. government's official web portal to all federal, state and local government web resources and services.